カタログに戻る

IRIDIUM 177

運用中通信PO
NORAD 56727·PAYLOAD·🇺🇸 United States

打ち上げ May 20, 2023 から Vandenberg Space Force Base

Loading…

次のパス (今後24時間)

TLE

最新Source: CelesTrak SupGP

元期: Sep 15, 2026, 02:02 UTC

1 56727C 23068T   26258.08506944 -.00001472  00000+0 -20859-3 0  2585
2 56727  86.1918 286.1387 0002665  93.1425  18.3750 14.77166574    13

AllMySatでIRIDIUM 177をリアルタイム追跡

Download on the App Store